Time,TemperatureF,DewpointF,PressureIn,WindDirection,WindDirectionDegrees,WindSpeedMPH,WindSpeedGustMPH,Humidity,HourlyPrecipIn,Conditions,Clouds,dailyrainin,SoftwareType,DateUTC
2013-10-10 00:01:00,46.2,44.6,30.23,NNW,336,1.0,4.0,94,0.01,,---,0.01,VWS V14.01,2013-10-10 04:01:00,
2013-10-10 00:02:00,46.2,44.6,30.23,NNW,336,1.0,2.0,94,0.00,,---,0.00,VWS V14.01,2013-10-10 04:02:00,
2013-10-10 00:07:00,46.1,44.5,30.23,NNW,341,1.0,4.0,94,0.00,,---,0.00,VWS V14.01,2013-10-10 04:07:00,
2013-10-10 00:12:00,46.0,44.4,30.23,NNW,340,1.0,4.0,94,0.00,,---,0.00,VWS V14.01,2013-10-10 04:12:00,
2013-10-10 00:18:00,45.9,44.3,30.23,NNW,340,3.0,5.0,94,0.00,,---,0.00,VWS V14.01,2013-10-10 04:18:00,
2013-10-10 00:23:00,45.9,44.5,30.23,NNW,340,3.0,3.0,95,0.00,,---,0.00,VWS V14.01,2013-10-10 04:23:00,
2013-10-10 00:28:00,45.8,44.5,30.23,NNW,340,1.0,4.0,95,0.00,,---,0.00,VWS V14.01,2013-10-10 04:28:00,
2013-10-10 00:33:00,45.8,44.5,30.23,NNW,340,1.0,2.0,95,0.00,,---,0.00,VWS V14.01,2013-10-10 04:33:00,
2013-10-10 00:38:00,45.8,44.5,30.23,NNW,340,1.0,3.0,95,0.00,,---,0.00,VWS V14.01,2013-10-10 04:38:00,
2013-10-10 00:43:00,45.7,44.3,30.23,NNW,340,0.0,3.0,95,0.00,,---,0.00,VWS V14.01,2013-10-10 04:43:00,
2013-10-10 00:48:00,45.7,44.3,30.23,NNW,340,2.0,3.0,95,0.00,,---,0.00,VWS V14.01,2013-10-10 04:48:00,
2013-10-10 00:53:00,45.7,44.3,30.23,NNW,340,1.0,2.0,95,0.00,,---,0.00,VWS V14.01,2013-10-10 04:53:00,
2013-10-10 00:58:00,45.6,44.2,30.23,NNW,340,2.0,4.0,95,0.00,,---,0.00,VWS V14.01,2013-10-10 04:58:00,
2013-10-10 01:03:00,45.7,44.3,30.23,NNW,340,1.0,3.0,95,0.00,,---,0.00,VWS V14.01,2013-10-10 05:03:00,
2013-10-10 01:08:00,45.6,44.2,30.23,NNW,340,1.0,4.0,95,0.00,,---,0.00,VWS V14.01,2013-10-10 05:08:00,
2013-10-10 01:13:00,45.6,44.2,30.22,NNW,340,1.0,4.0,95,0.00,,---,0.00,VWS V14.01,2013-10-10 05:13:00,
2013-10-10 01:18:00,45.6,44.2,30.22,NNW,340,0.0,4.0,95,0.00,,---,0.00,VWS V14.01,2013-10-10 05:18:00,
2013-10-10 01:23:00,45.6,44.2,30.23,NNW,340,1.0,2.0,95,0.00,,---,0.00,VWS V14.01,2013-10-10 05:23:00,
2013-10-10 01:28:00,45.5,44.2,30.22,NNW,340,2.0,3.0,95,0.00,,---,0.00,VWS V14.01,2013-10-10 05:28:00,
2013-10-10 01:33:00,45.6,44.2,30.22,NNW,340,1.0,1.0,95,0.00,,---,0.00,VWS V14.01,2013-10-10 05:33:00,
2013-10-10 01:38:00,45.6,44.5,30.22,NNW,340,0.0,3.0,96,0.00,,---,0.00,VWS V14.01,2013-10-10 05:38:00,
2013-10-10 01:44:00,45.7,44.6,30.22,NNW,340,0.0,1.0,96,0.00,,---,0.00,VWS V14.01,2013-10-10 05:44:00,
2013-10-10 01:49:00,45.5,44.4,30.22,NNW,340,2.0,3.0,96,0.00,,---,0.00,VWS V14.01,2013-10-10 05:49:00,
2013-10-10 01:54:00,45.5,44.4,30.22,NNW,340,0.0,1.0,96,0.00,,---,0.00,VWS V14.01,2013-10-10 05:54:00,
2013-10-10 01:59:00,45.4,44.3,30.22,NNW,339,1.0,3.0,96,0.00,,---,0.00,VWS V14.01,2013-10-10 05:59:00,
2013-10-10 02:04:00,45.4,44.3,30.22,NNW,339,0.0,2.0,96,0.00,,---,0.00,VWS V14.01,2013-10-10 06:04:00,
2013-10-10 02:09:00,45.3,44.2,30.22,NNW,338,0.0,2.0,96,0.00,,---,0.00,VWS V14.01,2013-10-10 06:09:00,
2013-10-10 02:14:00,45.2,44.1,30.22,NNW,338,0.0,1.0,96,0.00,,---,0.00,VWS V14.01,2013-10-10 06:14:00,
2013-10-10 02:19:00,45.1,44.0,30.22,NNW,338,0.0,2.0,96,0.00,,---,0.00,VWS V14.01,2013-10-10 06:19:00,
2013-10-10 02:24:00,45.0,43.9,30.21,NNW,338,0.0,1.0,96,0.00,,---,0.00,VWS V14.01,2013-10-10 06:24:00,
2013-10-10 02:29:00,45.0,43.9,30.21,NNW,338,1.0,1.0,96,0.00,,---,0.00,VWS V14.01,2013-10-10 06:29:00,
2013-10-10 02:34:00,45.1,44.0,30.21,NNW,338,0.0,2.0,96,0.00,,---,0.00,VWS V14.01,2013-10-10 06:34:00,
2013-10-10 02:39:00,45.0,43.9,30.21,NNW,336,0.0,2.0,96,0.00,,---,0.00,VWS V14.01,2013-10-10 06:39:00,
2013-10-10 02:44:00,45.0,43.9,30.20,NNW,336,0.0,1.0,96,0.00,,---,0.00,VWS V14.01,2013-10-10 06:44:00,
2013-10-10 02:49:00,45.1,44.0,30.21,NNW,336,0.0,1.0,96,0.00,,---,0.00,VWS V14.01,2013-10-10 06:49:00,
2013-10-10 02:54:00,45.1,44.0,30.20,NNW,336,0.0,1.0,96,0.00,,---,0.00,VWS V14.01,2013-10-10 06:54:00,
2013-10-10 02:59:00,45.1,44.3,30.20,NNW,336,0.0,1.0,97,0.00,,---,0.00,VWS V14.01,2013-10-10 06:59:00,
2013-10-10 03:05:00,45.2,44.4,30.20,NNW,336,0.0,1.0,97,0.00,,---,0.00,VWS V14.01,2013-10-10 07:05:00,
2013-10-10 03:10:00,45.2,44.4,30.20,NNW,336,0.0,1.0,97,0.00,,---,0.00,VWS V14.01,2013-10-10 07:10:00,
2013-10-10 03:15:00,45.2,44.4,30.19,NNW,336,1.0,4.0,97,0.00,,---,0.00,VWS V14.01,2013-10-10 07:15:00,
2013-10-10 03:22:00,45.0,44.2,30.20,NNW,336,5.0,5.0,97,0.00,,---,0.00,VWS V14.01,2013-10-10 07:22:00,
2013-10-10 03:27:00,44.7,43.9,30.19,NNW,338,4.0,6.0,97,0.00,,---,0.00,VWS V14.01,2013-10-10 07:27:00,
2013-10-10 03:32:00,44.6,43.8,30.19,NNW,340,4.0,5.0,97,0.00,,---,0.00,VWS V14.01,2013-10-10 07:32:00,
2013-10-10 03:37:00,44.7,43.9,30.19,NNW,340,2.0,5.0,97,0.00,,---,0.00,VWS V14.01,2013-10-10 07:37:00,
2013-10-10 03:42:00,44.8,44.0,30.18,NNW,339,2.0,3.0,97,0.00,,---,0.00,VWS V14.01,2013-10-10 07:42:00,
2013-10-10 03:47:00,44.8,44.0,30.18,NNW,338,3.0,4.0,97,0.00,,---,0.00,VWS V14.01,2013-10-10 07:47:00,
2013-10-10 03:52:00,44.7,43.9,30.18,NNW,339,1.0,3.0,97,0.00,,---,0.00,VWS V14.01,2013-10-10 07:52:00,
2013-10-10 03:57:00,44.8,44.0,30.18,NNW,338,0.0,4.0,97,0.00,,---,0.00,VWS V14.01,2013-10-10 07:57:00,
2013-10-10 04:02:00,44.7,43.9,30.18,NNW,338,1.0,2.0,97,0.00,,---,0.00,VWS V14.01,2013-10-10 08:02:00,
2013-10-10 04:07:00,44.7,43.9,30.18,NNW,338,2.0,3.0,97,0.00,,---,0.00,VWS V14.01,2013-10-10 08:07:00,
2013-10-10 04:12:00,44.7,43.9,30.18,NNW,338,0.0,2.0,97,0.00,,---,0.00,VWS V14.01,2013-10-10 08:12:00,
2013-10-10 04:17:00,44.8,44.0,30.18,NNW,338,1.0,3.0,97,0.00,,---,0.00,VWS V14.01,2013-10-10 08:17:00,
2013-10-10 04:22:00,44.9,44.1,30.18,NNW,338,0.0,1.0,97,0.00,,---,0.00,VWS V14.01,2013-10-10 08:22:00,
2013-10-10 04:27:00,45.0,44.2,30.18,NNW,340,0.0,2.0,97,0.00,,---,0.00,VWS V14.01,2013-10-10 08:27:00,
2013-10-10 04:33:00,44.9,44.1,30.18,NNW,340,0.0,1.0,97,0.00,,---,0.00,VWS V14.01,2013-10-10 08:33:00,
2013-10-10 04:38:00,44.9,44.1,30.18,NNW,340,0.0,1.0,97,0.00,,---,0.00,VWS V14.01,2013-10-10 08:38:00,
2013-10-10 04:43:00,44.9,44.1,30.18,NNW,340,0.0,0.0,97,0.00,,---,0.00,VWS V14.01,2013-10-10 08:43:00,
2013-10-10 04:48:00,45.0,44.5,30.18,NNW,340,1.0,2.0,98,0.00,,---,0.00,VWS V14.01,2013-10-10 08:48:00,
2013-10-10 04:53:00,45.0,44.5,30.18,NNW,340,0.0,3.0,98,0.00,,---,0.00,VWS V14.01,2013-10-10 08:53:00,
2013-10-10 04:58:00,45.0,44.5,30.18,NNW,340,0.0,3.0,98,0.00,,---,0.00,VWS V14.01,2013-10-10 08:58:00,
2013-10-10 05:03:00,45.0,44.5,30.18,NNW,340,0.0,1.0,98,0.00,,---,0.00,VWS V14.01,2013-10-10 09:03:00,
2013-10-10 05:08:00,44.9,44.4,30.18,NNW,340,0.0,2.0,98,0.00,,---,0.00,VWS V14.01,2013-10-10 09:08:00,
2013-10-10 05:13:00,44.9,44.4,30.18,NNW,340,0.0,1.0,98,0.00,,---,0.00,VWS V14.01,2013-10-10 09:13:00,
2013-10-10 05:18:00,44.9,44.4,30.18,NNW,340,2.0,3.0,98,0.00,,---,0.00,VWS V14.01,2013-10-10 09:18:00,
2013-10-10 05:23:00,44.8,44.3,30.17,NNW,340,3.0,4.0,98,0.00,,---,0.00,VWS V14.01,2013-10-10 09:23:00,
2013-10-10 05:28:00,44.7,44.2,30.18,NNW,339,2.0,4.0,98,0.00,,---,0.00,VWS V14.01,2013-10-10 09:28:00,
2013-10-10 05:33:00,44.7,44.2,30.18,NNW,339,3.0,4.0,98,0.00,,---,0.00,VWS V14.01,2013-10-10 09:33:00,
2013-10-10 05:38:00,44.7,44.2,30.18,NNW,339,0.0,4.0,98,0.00,,---,0.00,VWS V14.01,2013-10-10 09:38:00,
2013-10-10 05:43:00,44.8,44.3,30.18,NNW,339,1.0,4.0,98,0.00,,---,0.00,VWS V14.01,2013-10-10 09:43:00,
2013-10-10 05:48:00,44.8,44.3,30.18,NNW,339,2.0,4.0,98,0.00,,---,0.00,VWS V14.01,2013-10-10 09:48:00,
2013-10-10 05:53:00,44.7,44.2,30.18,NNW,340,2.0,5.0,98,0.00,,---,0.00,VWS V14.01,2013-10-10 09:53:00,
2013-10-10 05:59:00,44.7,44.2,30.18,NNW,340,3.0,6.0,98,0.00,,---,0.00,VWS V14.01,2013-10-10 09:59:00,
2013-10-10 06:04:00,44.7,44.2,30.18,NNW,339,4.0,6.0,98,0.00,,---,0.00,VWS V14.01,2013-10-10 10:04:00,
2013-10-10 06:09:00,44.7,44.2,30.18,NNW,345,4.0,6.0,98,0.00,,---,0.00,VWS V14.01,2013-10-10 10:09:00,
2013-10-10 06:14:00,44.6,44.1,30.18,NNW,343,4.0,6.0,98,0.00,,---,0.00,VWS V14.01,2013-10-10 10:14:00,
2013-10-10 06:19:00,44.5,44.0,30.17,NNW,347,4.0,6.0,98,0.00,,---,0.00,VWS V14.01,2013-10-10 10:19:00,
2013-10-10 06:24:00,44.5,44.0,30.17,NNW,338,5.0,6.0,98,0.00,,---,0.00,VWS V14.01,2013-10-10 10:24:00,
2013-10-10 06:29:00,44.5,44.0,30.17,NNW,337,6.0,7.0,98,0.00,,---,0.00,VWS V14.01,2013-10-10 10:29:00,
2013-10-10 06:34:00,44.5,44.0,30.17,NNW,344,3.0,5.0,98,0.00,,---,0.00,VWS V14.01,2013-10-10 10:34:00,
2013-10-10 06:39:00,44.6,44.1,30.17,NNW,335,4.0,6.0,98,0.00,,---,0.00,VWS V14.01,2013-10-10 10:39:00,
2013-10-10 06:44:00,44.6,44.1,30.17,NNW,345,5.0,7.0,98,0.00,,---,0.00,VWS V14.01,2013-10-10 10:44:00,
2013-10-10 06:49:00,44.7,44.2,30.17,NNW,341,0.0,7.0,98,0.00,,---,0.00,VWS V14.01,2013-10-10 10:49:00,
2013-10-10 06:54:00,44.7,44.2,30.17,North,355,5.0,7.0,98,0.00,,---,0.00,VWS V14.01,2013-10-10 10:54:00,
2013-10-10 06:59:00,44.7,44.2,30.17,NNW,341,5.0,7.0,98,0.00,,---,0.00,VWS V14.01,2013-10-10 10:59:00,
2013-10-10 07:04:00,44.7,44.2,30.17,North,349,1.0,6.0,98,0.00,,---,0.00,VWS V14.01,2013-10-10 11:04:00,
2013-10-10 07:09:00,44.7,44.2,30.17,NNW,344,3.0,6.0,98,0.00,,---,0.00,VWS V14.01,2013-10-10 11:09:00,
2013-10-10 07:14:00,44.8,44.3,30.17,NNW,333,5.0,5.0,98,0.00,,---,0.00,VWS V14.01,2013-10-10 11:14:00,
2013-10-10 07:20:00,44.7,44.2,30.17,NNW,348,4.0,7.0,98,0.00,,---,0.00,VWS V14.01,2013-10-10 11:20:00,
2013-10-10 07:25:00,44.7,44.2,30.17,NNW,338,4.0,6.0,98,0.00,,---,0.00,VWS V14.01,2013-10-10 11:25:00,
2013-10-10 07:30:00,44.8,44.3,30.17,NNW,341,4.0,7.0,98,0.00,,---,0.00,VWS V14.01,2013-10-10 11:30:00,
2013-10-10 07:35:00,44.7,44.2,30.17,NNW,346,5.0,6.0,98,0.00,,---,0.00,VWS V14.01,2013-10-10 11:35:00,
2013-10-10 07:40:00,44.7,44.2,30.17,NNW,346,4.0,6.0,98,0.00,,---,0.00,VWS V14.01,2013-10-10 11:40:00,
2013-10-10 07:45:00,44.7,44.2,30.17,NNW,346,6.0,6.0,98,0.00,,---,0.00,VWS V14.01,2013-10-10 11:45:00,
2013-10-10 07:50:00,44.7,44.2,30.17,NNW,340,4.0,6.0,98,0.00,,---,0.00,VWS V14.01,2013-10-10 11:50:00,
2013-10-10 07:55:00,44.7,44.2,30.17,NNW,342,2.0,7.0,98,0.00,,---,0.00,VWS V14.01,2013-10-10 11:55:00,
2013-10-10 08:00:00,44.7,44.2,30.18,NNW,339,0.0,7.0,98,0.00,,---,0.00,VWS V14.01,2013-10-10 12:00:00,
2013-10-10 08:05:00,44.7,44.2,30.18,NNW,334,0.0,4.0,98,0.00,,---,0.00,VWS V14.01,2013-10-10 12:05:00,
2013-10-10 08:10:00,44.9,44.4,30.18,North,360,2.0,4.0,98,0.00,,---,0.00,VWS V14.01,2013-10-10 12:10:00,
2013-10-10 08:15:00,45.1,44.6,30.18,North,360,0.0,1.0,98,0.00,,---,0.00,VWS V14.01,2013-10-10 12:15:00,
2013-10-10 08:20:00,45.2,44.7,30.19,North,360,0.0,1.0,98,0.00,,---,0.00,VWS V14.01,2013-10-10 12:20:00,
2013-10-10 08:25:00,45.3,44.8,30.19,North,360,0.0,2.0,98,0.00,,---,0.00,VWS V14.01,2013-10-10 12:25:00,
2013-10-10 08:30:00,45.2,44.7,30.18,North,360,3.0,4.0,98,0.00,,---,0.00,VWS V14.01,2013-10-10 12:30:00,
2013-10-10 08:35:00,45.0,44.5,30.18,NNW,342,3.0,6.0,98,0.00,,---,0.00,VWS V14.01,2013-10-10 12:35:00,
2013-10-10 08:40:00,45.0,44.5,30.18,NNW,348,2.0,7.0,98,0.00,,---,0.00,VWS V14.01,2013-10-10 12:40:00,
2013-10-10 08:45:00,44.9,44.4,30.18,North,355,3.0,7.0,98,0.00,,---,0.00,VWS V14.01,2013-10-10 12:45:00,
2013-10-10 08:51:00,45.0,44.5,30.18,North,355,4.0,7.0,98,0.00,,---,0.00,VWS V14.01,2013-10-10 12:51:00,
2013-10-10 08:56:00,45.0,44.5,30.18,NNW,346,6.0,7.0,98,0.00,,---,0.00,VWS V14.01,2013-10-10 12:56:00,
2013-10-10 09:01:00,45.0,44.5,30.18,NNW,344,6.0,7.0,98,0.00,,---,0.00,VWS V14.01,2013-10-10 13:01:00,
2013-10-10 09:06:00,45.0,44.5,30.18,NNW,342,6.0,7.0,98,0.00,,---,0.00,VWS V14.01,2013-10-10 13:06:00,
2013-10-10 09:11:00,44.9,44.4,30.18,NNW,336,6.0,7.0,98,0.00,,---,0.00,VWS V14.01,2013-10-10 13:11:00,
2013-10-10 09:16:00,44.8,44.3,30.18,NNW,341,7.0,7.0,98,0.00,,---,0.00,VWS V14.01,2013-10-10 13:16:00,
2013-10-10 09:21:00,44.8,44.3,30.18,NNW,348,6.0,7.0,98,0.00,,---,0.00,VWS V14.01,2013-10-10 13:21:00,
2013-10-10 09:26:00,44.9,44.4,30.18,NNW,344,6.0,7.0,98,0.00,,---,0.00,VWS V14.01,2013-10-10 13:26:00,
2013-10-10 09:31:00,45.0,44.5,30.18,NNW,343,6.0,8.0,98,0.00,,---,0.00,VWS V14.01,2013-10-10 13:31:00,
2013-10-10 09:36:00,45.0,44.5,30.18,NNW,345,6.0,8.0,98,0.00,,---,0.00,VWS V14.01,2013-10-10 13:36:00,
2013-10-10 09:41:00,45.0,44.5,30.18,NNW,327,7.0,9.0,98,0.00,,---,0.00,VWS V14.01,2013-10-10 13:41:00,
2013-10-10 09:46:00,45.1,44.6,30.19,NW,315,4.0,8.0,98,0.00,,---,0.00,VWS V14.01,2013-10-10 13:46:00,
2013-10-10 09:51:00,45.1,44.6,30.18,NNW,342,7.0,7.0,98,0.00,,---,0.00,VWS V14.01,2013-10-10 13:51:00,
2013-10-10 09:56:00,45.0,44.5,30.18,NNW,340,5.0,9.0,98,0.00,,---,0.00,VWS V14.01,2013-10-10 13:56:00,
2013-10-10 10:01:00,45.2,44.7,30.18,NW,326,6.0,6.0,98,0.00,,---,0.00,VWS V14.01,2013-10-10 14:01:00,
2013-10-10 10:06:00,45.3,44.8,30.18,NNW,342,7.0,10.0,98,0.00,,---,0.00,VWS V14.01,2013-10-10 14:06:00,
2013-10-10 10:11:00,45.4,44.9,30.18,NW,323,4.0,8.0,98,0.00,,---,0.00,VWS V14.01,2013-10-10 14:11:00,
2013-10-10 10:17:00,45.3,44.8,30.18,NNW,348,4.0,8.0,98,0.00,,---,0.00,VWS V14.01,2013-10-10 14:17:00,
2013-10-10 10:22:00,45.6,45.1,30.18,NNW,345,6.0,6.0,98,0.00,,---,0.00,VWS V14.01,2013-10-10 14:22:00,
2013-10-10 10:27:00,45.7,45.2,30.18,NNW,331,6.0,7.0,98,0.00,,---,0.00,VWS V14.01,2013-10-10 14:27:00,
2013-10-10 10:32:00,45.6,45.1,30.18,NNW,344,6.0,8.0,98,0.00,,---,0.00,VWS V14.01,2013-10-10 14:32:00,
2013-10-10 10:37:00,45.5,45.0,30.18,NNW,336,7.0,8.0,98,0.00,,---,0.00,VWS V14.01,2013-10-10 14:37:00,
2013-10-10 10:42:00,45.5,45.0,30.17,NNW,343,7.0,7.0,98,0.00,,---,0.00,VWS V14.01,2013-10-10 14:42:00,
2013-10-10 10:47:00,45.5,45.0,30.17,NNW,342,6.0,8.0,98,0.00,,---,0.00,VWS V14.01,2013-10-10 14:47:00,
2013-10-10 10:52:00,45.6,45.1,30.17,NNW,344,5.0,7.0,98,0.00,,---,0.00,VWS V14.01,2013-10-10 14:52:00,
2013-10-10 10:57:00,45.6,45.1,30.17,North,355,6.0,8.0,98,0.00,,---,0.00,VWS V14.01,2013-10-10 14:57:00,
2013-10-10 11:02:00,45.5,45.0,30.17,NW,326,5.0,8.0,98,0.00,,---,0.00,VWS V14.01,2013-10-10 15:02:00,
2013-10-10 11:07:00,45.6,45.1,30.17,North,5,4.0,11.0,98,0.00,,---,0.00,VWS V14.01,2013-10-10 15:07:00,
2013-10-10 11:12:00,45.6,45.1,30.17,NNW,340,8.0,9.0,98,0.00,,---,0.00,VWS V14.01,2013-10-10 15:12:00,
2013-10-10 11:17:00,45.6,45.1,30.17,NNW,346,5.0,11.0,98,0.00,,---,0.00,VWS V14.01,2013-10-10 15:17:00,
2013-10-10 11:22:00,45.8,45.3,30.17,North,355,3.0,7.0,98,0.00,,---,0.00,VWS V14.01,2013-10-10 15:22:00,
2013-10-10 11:27:00,46.0,45.5,30.17,North,350,6.0,9.0,98,0.00,,---,0.00,VWS V14.01,2013-10-10 15:27:00,
2013-10-10 11:32:00,46.0,45.7,30.17,NNW,338,3.0,5.0,99,0.00,,---,0.00,VWS V14.01,2013-10-10 15:32:00,
2013-10-10 11:37:00,46.1,45.6,30.17,NW,317,4.0,6.0,98,0.00,,---,0.00,VWS V14.01,2013-10-10 15:37:00,
2013-10-10 11:43:00,46.1,45.8,30.17,NNW,348,3.0,8.0,99,0.00,,---,0.00,VWS V14.01,2013-10-10 15:43:00,
2013-10-10 11:48:00,46.1,45.8,30.17,NNW,348,3.0,8.0,99,0.00,,---,0.00,VWS V14.01,2013-10-10 15:48:00,
2013-10-10 11:53:00,46.2,45.9,30.17,NNW,327,3.0,5.0,99,0.00,,---,0.00,VWS V14.01,2013-10-10 15:53:00,
2013-10-10 11:58:00,46.3,45.8,30.17,NW,325,4.0,8.0,98,0.00,,---,0.00,VWS V14.01,2013-10-10 15:58:00,
2013-10-10 12:03:00,46.3,46.0,30.17,NNW,344,4.0,5.0,99,0.00,,---,0.00,VWS V14.01,2013-10-10 16:03:00,
2013-10-10 12:08:00,46.2,45.9,30.17,NNW,333,4.0,7.0,99,0.00,,---,0.00,VWS V14.01,2013-10-10 16:08:00,
2013-10-10 12:13:00,46.3,45.8,30.16,North,351,5.0,5.0,98,0.00,,---,0.00,VWS V14.01,2013-10-10 16:13:00,
2013-10-10 12:18:00,46.3,45.8,30.16,NNW,340,4.0,7.0,98,0.00,,---,0.00,VWS V14.01,2013-10-10 16:18:00,
2013-10-10 12:23:00,46.2,45.9,30.16,NNW,348,4.0,7.0,99,0.00,,---,0.00,VWS V14.01,2013-10-10 16:23:00,
2013-10-10 12:28:00,46.4,45.9,30.16,NNW,327,4.0,7.0,98,0.00,,---,0.00,VWS V14.01,2013-10-10 16:28:00,
2013-10-10 12:33:00,46.5,46.0,30.16,NNW,346,2.0,7.0,98,0.00,,---,0.00,VWS V14.01,2013-10-10 16:33:00,
2013-10-10 12:38:00,46.5,46.0,30.16,NNE,13,2.0,7.0,98,0.00,,---,0.00,VWS V14.01,2013-10-10 16:38:00,
2013-10-10 12:43:00,46.5,46.0,30.15,NNW,344,2.0,6.0,98,0.00,,---,0.00,VWS V14.01,2013-10-10 16:43:00,
2013-10-10 12:48:00,46.5,46.0,30.15,NNW,346,5.0,6.0,98,0.00,,---,0.00,VWS V14.01,2013-10-10 16:48:00,
2013-10-10 12:53:00,46.6,46.1,30.15,North,355,4.0,8.0,98,0.00,,---,0.00,VWS V14.01,2013-10-10 16:53:00,
2013-10-10 12:58:00,46.7,46.4,30.15,NNW,341,5.0,8.0,99,0.00,,---,0.00,VWS V14.01,2013-10-10 16:58:00,
2013-10-10 13:03:00,46.5,46.0,30.15,WNW,290,5.0,7.0,98,0.00,,---,0.00,VWS V14.01,2013-10-10 17:03:00,
2013-10-10 13:08:00,46.6,46.1,30.15,NNW,332,5.0,7.0,98,0.00,,---,0.00,VWS V14.01,2013-10-10 17:08:00,
2013-10-10 13:14:00,46.6,46.3,30.15,North,355,5.0,6.0,99,0.00,,---,0.00,VWS V14.01,2013-10-10 17:14:00,
2013-10-10 13:19:00,46.7,46.4,30.15,NNW,340,4.0,9.0,99,0.00,,---,0.00,VWS V14.01,2013-10-10 17:19:00,
2013-10-10 13:24:00,46.8,46.5,30.15,North,355,3.0,6.0,99,0.00,,---,0.00,VWS V14.01,2013-10-10 17:24:00,
2013-10-10 13:29:00,46.9,46.6,30.14,NNW,347,3.0,7.0,99,0.00,,---,0.00,VWS V14.01,2013-10-10 17:29:00,
2013-10-10 13:34:00,47.2,46.7,30.15,North,349,3.0,4.0,98,0.00,,---,0.00,VWS V14.01,2013-10-10 17:34:00,
2013-10-10 13:39:00,47.2,46.9,30.14,NNW,343,3.0,6.0,99,0.00,,---,0.00,VWS V14.01,2013-10-10 17:39:00,
2013-10-10 13:44:00,47.2,46.9,30.14,NNW,343,3.0,6.0,99,0.00,,---,0.00,VWS V14.01,2013-10-10 17:44:00,
2013-10-10 13:49:00,47.2,46.9,30.13,NNW,343,1.0,6.0,99,0.00,,---,0.00,VWS V14.01,2013-10-10 17:49:00,
2013-10-10 13:54:00,47.2,46.9,30.13,NNW,338,3.0,7.0,99,0.00,,---,0.00,VWS V14.01,2013-10-10 17:54:00,
2013-10-10 13:59:00,47.1,46.6,30.13,NNW,340,4.0,7.0,98,0.00,,---,0.00,VWS V14.01,2013-10-10 17:59:00,
2013-10-10 14:04:00,47.1,46.8,30.13,NNW,341,3.0,6.0,99,0.00,,---,0.00,VWS V14.01,2013-10-10 18:04:00,
2013-10-10 14:09:00,47.0,46.7,30.13,North,355,5.0,7.0,99,0.00,,---,0.00,VWS V14.01,2013-10-10 18:09:00,
2013-10-10 14:14:00,46.9,46.6,30.13,North,355,5.0,6.0,99,0.00,,---,0.00,VWS V14.01,2013-10-10 18:14:00,
2013-10-10 14:19:00,47.0,46.7,30.12,NNW,340,4.0,7.0,99,0.00,,---,0.00,VWS V14.01,2013-10-10 18:19:00,
2013-10-10 14:24:00,46.9,46.6,30.12,North,351,3.0,6.0,99,0.00,,---,0.00,VWS V14.01,2013-10-10 18:24:00,
2013-10-10 14:29:00,46.7,46.4,30.12,NNW,343,3.0,7.0,99,0.00,,---,0.00,VWS V14.01,2013-10-10 18:29:00,
2013-10-10 14:34:00,46.7,46.4,30.12,NNW,341,5.0,6.0,99,0.00,,---,0.00,VWS V14.01,2013-10-10 18:34:00,
2013-10-10 14:40:00,46.8,46.5,30.12,NNW,342,5.0,7.0,99,0.00,,---,0.00,VWS V14.01,2013-10-10 18:40:00,
2013-10-10 14:45:00,46.8,46.5,30.12,NNW,342,6.0,7.0,99,0.00,,---,0.00,VWS V14.01,2013-10-10 18:45:00,
2013-10-10 14:50:00,46.7,46.4,30.12,NNW,334,5.0,7.0,99,0.00,,---,0.00,VWS V14.01,2013-10-10 18:50:00,
2013-10-10 14:55:00,46.7,46.4,30.12,NNW,343,7.0,7.0,99,0.00,,---,0.00,VWS V14.01,2013-10-10 18:55:00,
2013-10-10 15:00:00,46.8,46.5,30.12,NNW,338,6.0,7.0,99,0.00,,---,0.00,VWS V14.01,2013-10-10 19:00:00,
2013-10-10 15:05:00,46.9,46.6,30.12,NNW,341,5.0,7.0,99,0.00,,---,0.00,VWS V14.01,2013-10-10 19:05:00,
2013-10-10 15:10:00,46.9,46.6,30.12,NNW,342,6.0,7.0,99,0.00,,---,0.00,VWS V14.01,2013-10-10 19:10:00,
2013-10-10 15:15:00,46.8,46.5,30.12,NNW,346,6.0,8.0,99,0.00,,---,0.00,VWS V14.01,2013-10-10 19:15:00,
2013-10-10 15:20:00,46.8,46.5,30.12,North,355,4.0,8.0,99,0.00,,---,0.00,VWS V14.01,2013-10-10 19:20:00,
2013-10-10 15:25:00,46.9,46.6,30.12,NNW,336,6.0,8.0,99,0.00,,---,0.00,VWS V14.01,2013-10-10 19:25:00,
2013-10-10 15:30:00,46.9,46.6,30.12,NNW,347,2.0,8.0,99,0.00,,---,0.00,VWS V14.01,2013-10-10 19:30:00,
2013-10-10 15:35:00,47.0,46.7,30.12,NNW,340,3.0,5.0,99,0.00,,---,0.00,VWS V14.01,2013-10-10 19:35:00,
2013-10-10 15:40:00,47.0,46.7,30.12,NW,321,3.0,6.0,99,0.00,,---,0.00,VWS V14.01,2013-10-10 19:40:00,
2013-10-10 15:45:00,47.1,46.8,30.12,NNW,343,4.0,9.0,99,0.00,,---,0.00,VWS V14.01,2013-10-10 19:45:00,
2013-10-10 15:51:00,47.2,46.9,30.12,NNW,342,2.0,9.0,99,0.00,,---,0.00,VWS V14.01,2013-10-10 19:51:00,
2013-10-10 15:56:00,47.2,46.9,30.12,NNW,348,3.0,6.0,99,0.00,,---,0.00,VWS V14.01,2013-10-10 19:56:00,
2013-10-10 16:01:00,47.3,47.0,30.11,North,350,1.0,6.0,99,0.00,,---,0.00,VWS V14.01,2013-10-10 20:01:00,
2013-10-10 16:06:00,47.3,47.0,30.11,NNW,342,2.0,4.0,99,0.00,,---,0.00,VWS V14.01,2013-10-10 20:06:00,
2013-10-10 16:11:00,47.3,47.0,30.11,NNW,339,1.0,4.0,99,0.00,,---,0.00,VWS V14.01,2013-10-10 20:11:00,
2013-10-10 16:16:00,47.3,47.0,30.11,NNW,341,4.0,5.0,99,0.00,,---,0.00,VWS V14.01,2013-10-10 20:16:00,
2013-10-10 16:21:00,47.2,46.9,30.11,NNW,337,4.0,5.0,99,0.00,,---,0.00,VWS V14.01,2013-10-10 20:21:00,
2013-10-10 16:26:00,47.2,46.9,30.11,NNW,347,2.0,6.0,99,0.00,,---,0.00,VWS V14.01,2013-10-10 20:26:00,
2013-10-10 16:31:00,47.2,46.9,30.11,NNW,333,4.0,6.0,99,0.00,,---,0.00,VWS V14.01,2013-10-10 20:31:00,
2013-10-10 16:36:00,47.2,46.9,30.11,NNW,344,5.0,5.0,99,0.00,,---,0.00,VWS V14.01,2013-10-10 20:36:00,
2013-10-10 16:41:00,47.2,46.9,30.11,NNW,344,4.0,6.0,99,0.00,,---,0.00,VWS V14.01,2013-10-10 20:41:00,
2013-10-10 16:46:00,47.3,47.0,30.11,NNW,335,1.0,4.0,99,0.00,,---,0.00,VWS V14.01,2013-10-10 20:46:00,
2013-10-10 16:51:00,47.3,47.0,30.11,NNW,346,4.0,4.0,99,0.00,,---,0.00,VWS V14.01,2013-10-10 20:51:00,
2013-10-10 16:56:00,47.3,47.0,30.11,NNW,342,0.0,5.0,99,0.00,,---,0.00,VWS V14.01,2013-10-10 20:56:00,
2013-10-10 17:01:00,47.3,47.0,30.10,NNW,346,2.0,5.0,99,0.00,,---,0.00,VWS V14.01,2013-10-10 21:01:00,
2013-10-10 17:06:00,47.3,47.0,30.10,NNW,339,2.0,8.0,99,0.00,,---,0.00,VWS V14.01,2013-10-10 21:06:00,
2013-10-10 17:11:00,47.4,47.1,30.10,NNW,340,1.0,8.0,99,0.00,,---,0.00,VWS V14.01,2013-10-10 21:11:00,
2013-10-10 17:16:00,47.4,47.1,30.11,NNW,338,1.0,4.0,99,0.00,,---,0.00,VWS V14.01,2013-10-10 21:16:00,
2013-10-10 17:21:00,47.4,47.1,30.10,NNW,340,0.0,4.0,99,0.00,,---,0.00,VWS V14.01,2013-10-10 21:21:00,
2013-10-10 17:26:00,47.4,47.1,30.10,NNW,340,0.0,2.0,99,0.00,,---,0.00,VWS V14.01,2013-10-10 21:26:00,
2013-10-10 17:31:00,47.5,47.2,30.10,NNW,342,2.0,2.0,99,0.00,,---,0.00,VWS V14.01,2013-10-10 21:31:00,
2013-10-10 17:36:00,47.4,47.1,30.11,NNW,341,0.0,4.0,99,0.00,,---,0.00,VWS V14.01,2013-10-10 21:36:00,
2013-10-10 17:41:00,47.4,47.1,30.10,NNW,342,0.0,2.0,99,0.00,,---,0.00,VWS V14.01,2013-10-10 21:41:00,
2013-10-10 17:47:00,47.4,47.1,30.10,NNW,344,0.0,3.0,99,0.00,,---,0.00,VWS V14.01,2013-10-10 21:47:00,
2013-10-10 17:52:00,47.4,47.1,30.10,NW,316,1.0,1.0,99,0.00,,---,0.00,VWS V14.01,2013-10-10 21:52:00,
2013-10-10 17:57:00,47.4,47.1,30.10,NNW,341,0.0,3.0,99,0.00,,---,0.00,VWS V14.01,2013-10-10 21:57:00,
2013-10-10 18:02:00,47.4,47.1,30.11,NNW,341,0.0,2.0,99,0.00,,---,0.00,VWS V14.01,2013-10-10 22:02:00,
2013-10-10 18:07:00,47.4,47.1,30.11,NNW,341,1.0,3.0,99,0.00,,---,0.00,VWS V14.01,2013-10-10 22:07:00,
2013-10-10 18:12:00,47.4,47.1,30.10,North,355,2.0,3.0,99,0.00,,---,0.00,VWS V14.01,2013-10-10 22:12:00,
2013-10-10 18:17:00,47.4,47.1,30.10,NNW,344,1.0,5.0,99,0.00,,---,0.00,VWS V14.01,2013-10-10 22:17:00,
2013-10-10 18:22:00,47.4,47.1,30.10,NNW,334,3.0,3.0,99,0.00,,---,0.00,VWS V14.01,2013-10-10 22:22:00,
2013-10-10 18:27:00,47.5,47.2,30.10,NNW,334,0.0,3.0,99,0.00,,---,0.00,VWS V14.01,2013-10-10 22:27:00,
2013-10-10 18:32:00,47.5,47.2,30.10,North,360,0.0,5.0,99,0.00,,---,0.00,VWS V14.01,2013-10-10 22:32:00,
2013-10-10 18:37:00,47.5,47.2,30.10,North,351,0.0,5.0,99,0.00,,---,0.00,VWS V14.01,2013-10-10 22:37:00,
2013-10-10 18:42:00,47.5,47.2,30.10,North,351,1.0,3.0,99,0.00,,---,0.00,VWS V14.01,2013-10-10 22:42:00,
2013-10-10 18:47:00,47.5,47.2,30.10,North,351,1.0,3.0,99,0.00,,---,0.00,VWS V14.01,2013-10-10 22:47:00,
2013-10-10 18:52:00,47.6,47.3,30.10,North,350,3.0,4.0,99,0.00,,---,0.00,VWS V14.01,2013-10-10 22:52:00,
2013-10-10 18:57:00,47.6,47.3,30.10,North,350,1.0,4.0,99,0.00,,---,0.00,VWS V14.01,2013-10-10 22:57:00,
2013-10-10 19:02:00,47.7,47.4,30.10,NNW,348,0.0,2.0,99,0.00,,---,0.00,VWS V14.01,2013-10-10 23:02:00,
2013-10-10 19:07:00,47.7,47.4,30.10,NNW,347,2.0,3.0,99,0.00,,---,0.00,VWS V14.01,2013-10-10 23:07:00,
2013-10-10 19:13:00,47.7,47.4,30.10,NNW,327,1.0,3.0,99,0.00,,---,0.00,VWS V14.01,2013-10-10 23:13:00,
2013-10-10 19:18:00,47.8,47.5,30.10,NNW,327,0.0,3.0,99,0.00,,---,0.00,VWS V14.01,2013-10-10 23:18:00,
2013-10-10 19:23:00,47.8,47.5,30.10,NNW,331,0.0,3.0,99,0.00,,---,0.00,VWS V14.01,2013-10-10 23:23:00,
2013-10-10 19:28:00,47.9,47.6,30.10,North,350,0.0,3.0,99,0.00,,---,0.00,VWS V14.01,2013-10-10 23:28:00,
2013-10-10 19:33:00,47.9,47.6,30.10,NNW,340,4.0,4.0,99,0.00,,---,0.00,VWS V14.01,2013-10-10 23:33:00,
2013-10-10 19:38:00,47.9,47.6,30.10,NNW,348,1.0,5.0,99,0.00,,---,0.00,VWS V14.01,2013-10-10 23:38:00,
2013-10-10 19:43:00,47.9,47.6,30.10,NNW,348,3.0,4.0,99,0.00,,---,0.00,VWS V14.01,2013-10-10 23:43:00,
2013-10-10 19:48:00,47.9,47.6,30.10,NNW,344,1.0,4.0,99,0.00,,---,0.00,VWS V14.01,2013-10-10 23:48:00,
2013-10-10 19:53:00,48.0,47.7,30.10,NNW,344,2.0,4.0,99,0.00,,---,0.00,VWS V14.01,2013-10-10 23:53:00,
2013-10-10 19:58:00,48.0,47.7,30.09,NNW,344,3.0,4.0,99,0.00,,---,0.00,VWS V14.01,2013-10-10 23:58:00,
2013-10-10 20:03:00,48.0,47.7,30.09,NNW,342,0.0,3.0,99,0.00,,---,0.00,VWS V14.01,2013-10-11 00:03:00,
2013-10-10 20:08:00,48.1,47.8,30.09,North,360,2.0,4.0,99,0.00,,---,0.00,VWS V14.01,2013-10-11 00:08:00,
2013-10-10 20:13:00,48.1,47.8,30.10,NNW,342,3.0,4.0,99,0.00,,---,0.00,VWS V14.01,2013-10-11 00:13:00,
2013-10-10 20:18:00,48.2,47.9,30.09,NNW,345,1.0,4.0,99,0.00,,---,0.00,VWS V14.01,2013-10-11 00:18:00,
2013-10-10 20:23:00,48.2,47.9,30.09,NNW,346,0.0,1.0,99,0.00,,---,0.00,VWS V14.01,2013-10-11 00:23:00,
2013-10-10 20:28:00,48.2,47.9,30.09,NNW,327,2.0,3.0,99,0.00,,---,0.00,VWS V14.01,2013-10-11 00:28:00,
2013-10-10 20:33:00,48.2,47.9,30.09,NNW,333,0.0,3.0,99,0.00,,---,0.00,VWS V14.01,2013-10-11 00:33:00,
2013-10-10 20:39:00,48.3,48.0,30.09,NW,323,0.0,4.0,99,0.00,,---,0.00,VWS V14.01,2013-10-11 00:39:00,
2013-10-10 20:44:00,48.2,47.9,30.09,NW,323,0.0,2.0,99,0.00,,---,0.00,VWS V14.01,2013-10-11 00:44:00,
2013-10-10 20:49:00,48.3,48.0,30.09,NW,319,0.0,2.0,99,0.00,,---,0.00,VWS V14.01,2013-10-11 00:49:00,
2013-10-10 20:54:00,48.2,47.9,30.09,NNW,338,0.0,2.0,99,0.00,,---,0.00,VWS V14.01,2013-10-11 00:54:00,
2013-10-10 20:59:00,48.3,48.0,30.09,NW,323,1.0,3.0,99,0.00,,---,0.00,VWS V14.01,2013-10-11 00:59:00,
2013-10-10 21:04:00,48.2,47.9,30.09,NNW,329,0.0,3.0,99,0.00,,---,0.00,VWS V14.01,2013-10-11 01:04:00,
2013-10-10 21:09:00,48.2,47.9,30.09,NNW,333,0.0,3.0,99,0.00,,---,0.00,VWS V14.01,2013-10-11 01:09:00,
2013-10-10 21:14:00,48.2,47.9,30.09,NNW,336,0.0,2.0,99,0.00,,---,0.00,VWS V14.01,2013-10-11 01:14:00,
2013-10-10 21:19:00,48.2,47.9,30.09,NNW,336,1.0,3.0,99,0.00,,---,0.00,VWS V14.01,2013-10-11 01:19:00,
2013-10-10 21:24:00,48.2,47.9,30.09,NNW,336,0.0,3.0,99,0.00,,---,0.00,VWS V14.01,2013-10-11 01:24:00,
2013-10-10 21:29:00,48.2,47.9,30.09,NNW,337,1.0,3.0,99,0.00,,---,0.00,VWS V14.01,2013-10-11 01:29:00,
2013-10-10 21:34:00,48.2,47.9,30.09,NW,321,0.0,2.0,99,0.00,,---,0.00,VWS V14.01,2013-10-11 01:34:00,
2013-10-10 21:39:00,48.2,47.9,30.09,NW,321,0.0,2.0,99,0.00,,---,0.00,VWS V14.01,2013-10-11 01:39:00,
2013-10-10 21:44:00,48.2,47.9,30.09,NW,321,0.0,3.0,99,0.00,,---,0.00,VWS V14.01,2013-10-11 01:44:00,
2013-10-10 21:49:00,48.2,47.9,30.09,NW,321,0.0,3.0,99,0.00,,---,0.00,VWS V14.01,2013-10-11 01:49:00,
2013-10-10 21:54:00,48.2,47.9,30.09,NW,323,0.0,3.0,99,0.00,,---,0.00,VWS V14.01,2013-10-11 01:54:00,
2013-10-10 22:00:00,48.2,47.9,30.09,NNW,334,0.0,4.0,99,0.00,,---,0.00,VWS V14.01,2013-10-11 02:00:00,
2013-10-10 22:05:00,48.1,47.8,30.09,NNW,334,2.0,4.0,99,0.00,,---,0.00,VWS V14.01,2013-10-11 02:05:00,
2013-10-10 22:10:00,48.1,47.8,30.09,NNW,338,0.0,4.0,99,0.01,,---,0.01,VWS V14.01,2013-10-11 02:10:00,
2013-10-10 22:15:00,48.0,47.7,30.09,NNW,338,1.0,3.0,99,0.01,,---,0.01,VWS V14.01,2013-10-11 02:15:00,
2013-10-10 22:20:00,48.1,47.8,30.09,NNW,340,4.0,6.0,99,0.01,,---,0.01,VWS V14.01,2013-10-11 02:20:00,
2013-10-10 22:25:00,48.1,47.8,30.08,NNW,344,3.0,5.0,99,0.01,,---,0.01,VWS V14.01,2013-10-11 02:25:00,
2013-10-10 22:30:00,48.1,47.8,30.08,NNW,342,3.0,5.0,99,0.01,,---,0.01,VWS V14.01,2013-10-11 02:30:00,
2013-10-10 22:35:00,48.1,47.8,30.08,NNW,344,3.0,3.0,99,0.01,,---,0.01,VWS V14.01,2013-10-11 02:35:00,
2013-10-10 22:40:00,48.1,47.8,30.08,NNW,343,0.0,4.0,99,0.01,,---,0.01,VWS V14.01,2013-10-11 02:40:00,
2013-10-10 22:45:00,48.1,47.8,30.08,NNW,336,4.0,7.0,99,0.01,,---,0.01,VWS V14.01,2013-10-11 02:45:00,
2013-10-10 22:50:00,48.1,47.8,30.08,NNW,336,2.0,7.0,99,0.01,,---,0.01,VWS V14.01,2013-10-11 02:50:00,
2013-10-10 22:55:00,48.1,47.8,30.08,NNW,336,1.0,3.0,99,0.01,,---,0.01,VWS V14.01,2013-10-11 02:55:00,
2013-10-10 23:00:00,48.1,47.8,30.08,NNW,337,2.0,4.0,99,0.01,,---,0.01,VWS V14.01,2013-10-11 03:00:00,
2013-10-10 23:05:00,48.2,47.9,30.07,NNW,338,2.0,4.0,99,0.01,,---,0.01,VWS V14.01,2013-10-11 03:05:00,
2013-10-10 23:10:00,48.2,47.9,30.07,NNW,338,0.0,4.0,99,0.01,,---,0.01,VWS V14.01,2013-10-11 03:10:00,
2013-10-10 23:15:00,48.2,47.9,30.07,NNW,338,1.0,4.0,99,0.00,,---,0.01,VWS V14.01,2013-10-11 03:15:00,
2013-10-10 23:20:00,48.2,47.9,30.07,West,277,0.0,4.0,99,0.00,,---,0.01,VWS V14.01,2013-10-11 03:20:00,
2013-10-10 23:26:00,48.2,47.9,30.07,West,277,1.0,1.0,99,0.00,,---,0.01,VWS V14.01,2013-10-11 03:26:00,
2013-10-10 23:31:00,48.3,48.0,30.07,West,277,0.0,1.0,99,0.00,,---,0.01,VWS V14.01,2013-10-11 03:31:00,
2013-10-10 23:36:00,48.2,47.9,30.07,NNW,337,3.0,4.0,99,0.00,,---,0.01,VWS V14.01,2013-10-11 03:36:00,
2013-10-10 23:41:00,48.2,47.9,30.07,NNW,340,0.0,4.0,99,0.00,,---,0.01,VWS V14.01,2013-10-11 03:41:00,
2013-10-10 23:46:00,48.2,47.9,30.06,NNW,340,1.0,3.0,99,0.00,,---,0.01,VWS V14.01,2013-10-11 03:46:00,
2013-10-10 23:51:00,48.2,47.9,30.06,NNW,340,1.0,3.0,99,0.00,,---,0.01,VWS V14.01,2013-10-11 03:51:00,
2013-10-10 23:56:00,48.2,47.9,30.06,NNW,340,0.0,3.0,99,0.00,,---,0.01,VWS V14.01,2013-10-11 03:56:00,